sat.trackr.live / text

‹ back to catalog

STARLINK-32472

NORAD 61846 · 2024-202B

PAYLOAD ACTIVE UNKNOWN

§ Identity

Operator
Country
US
Launch date
2024-11-07
Launch site
AFETR
Launch vehicle
Mass (kg)
RCS (m²)

Purposes: comms

External: N2YO · Heavens-Above · Gunter

§ Orbital elements

Epoch: 2026-09-21T05:02:12.374016Z

Period
94.27 min
Inclination
43.0012°
Eccentricity
0.0000776
Mean motion
15.27573669 rev/d
Perigee alt
482.5 km
Apogee alt
483.6 km
Semi-major
6,861.2 km
B*
-3.0655e-5
RAAN
203.0935°
Arg perigee
275.9731°
Mean anomaly
84.1032°
Rev number
10,535

§ Raw data

STARLINK-324721 61846U 24202B   26264.20986544 -.00001105  00000+0 -30655-4 0  99942 61846  43.0012 203.0935 0000776 275.9731  84.1032 15.27573669105356

JSON: /api/v1/satellites/61846 · /tle

For live sub-satellite position, see the globe view (requires WebGL).

§ Visibility from observer

Set your observer location to see the next 7 days of passes ≥ 10°. The values pass through the URL so the page stays shareable.

No JS? Fill the form by hand. The geolocation button needs JavaScript.